Previsão horária em Cenotillo

Hoje, 25 Julho, Domingo

Tempo Temperatura Precipitação Vento Pressão Humidade
00:00 +25°C° 0 mm 1 m/s 759 mmHg 93%
01:00 +25°C° 0 mm 1 m/s 759 mmHg 94%
02:00 +23°C° 0 mm 0 m/s 758 mmHg 95%
03:00 +23°C° 0 mm 0 m/s 758 mmHg 96%
04:00 +23°C° 0 mm 0 m/s 758 mmHg 95%
05:00 +23°C° 0 mm 0 m/s 758 mmHg 95%
06:00 +23°C° 0 mm 0 m/s 758 mmHg 94%
07:00 +26°C° 0 mm 0 m/s 758 mmHg 81%
08:00 +29°C° 0 mm 0 m/s 759 mmHg 68%
09:00 +31°C° 0 mm 0 m/s 759 mmHg 55%
10:00 +33°C° 0 mm 0 m/s 758 mmHg 48%
11:00 +37°C° 0 mm 1 m/s 758 mmHg 41%
12:00 +40°C° 0 mm 1 m/s 757 mmHg 34%
13:00 +39°C° 0 mm 2 m/s 757 mmHg 37%
14:00 +38°C° 0 mm 3 m/s 756 mmHg 40%
15:00 +37°C° 0 mm 5 m/s 756 mmHg 44%
16:00 +35°C° 0 mm 4 m/s 756 mmHg 50%
17:00 +34°C° 0 mm 4 m/s 756 mmHg 55%
18:00 +31°C° 0 mm 3 m/s 756 mmHg 61%
19:00 +30°C° 0 mm 3 m/s 756 mmHg 69%
20:00 +28°C° 0 mm 2 m/s 757 mmHg 76%
21:00 +26°C° 0 mm 1 m/s 757 mmHg 84%
22:00 +26°C° 0 mm 1 m/s 757 mmHg 85%
23:00 +26°C° 0 mm 1 m/s 757 mmHg 86%

Amanhã, 26 Julho, Segunda-feira

Tempo Temperatura Precipitação Vento Pressão Humidade
00:00 +26°C° 0 mm 1 m/s 757 mmHg 88%
01:00 +25°C° 0 mm 1 m/s 757 mmHg 88%
02:00 +25°C° 0 mm 1 m/s 757 mmHg 89%
03:00 +25°C° 0 mm 1 m/s 756 mmHg 89%
04:00 +25°C° 0 mm 1 m/s 756 mmHg 89%
05:00 +25°C° 0 mm 1 m/s 757 mmHg 89%
06:00 +25°C° 0 mm 1 m/s 757 mmHg 89%
07:00 +28°C° 0 mm 1 m/s 757 mmHg 76%
08:00 +31°C° 0 mm 2 m/s 757 mmHg 62%
09:00 +34°C° 0 mm 2 m/s 758 mmHg 49%
10:00 +36°C° 0 mm 2 m/s 757 mmHg 44%
11:00 +37°C° 0 mm 1 m/s 757 mmHg 39%
12:00 +40°C° 0 mm 1 m/s 756 mmHg 33%
13:00 +39°C° 0 mm 2 m/s 756 mmHg 36%
14:00 +38°C° 0 mm 2 m/s 755 mmHg 38%
15:00 +38°C° 0 mm 3 m/s 755 mmHg 41%
16:00 +35°C° 0.1 mm 3 m/s 755 mmHg 51%
17:00 +33°C° 0.1 mm 3 m/s 756 mmHg 62%
18:00 +30°C° 0.1 mm 3 m/s 756 mmHg 72%
19:00 +29°C° 0.3 mm 2 m/s 756 mmHg 77%
20:00 +28°C° 0.3 mm 2 m/s 757 mmHg 81%
21:00 +27°C° 0.3 mm 2 m/s 757 mmHg 86%
22:00 +27°C° 0 mm 2 m/s 757 mmHg 87%
23:00 +26°C° 0 mm 2 m/s 758 mmHg 89%

Depois de amanhã, 27 Julho, Terça-feira

Tempo Temperatura Precipitação Vento Pressão Humidade
00:00 +26°C° 0 mm 2 m/s 758 mmHg 90%
01:00 +25°C° 0 mm 2 m/s 757 mmHg 91%
02:00 +25°C° 0 mm 2 m/s 757 mmHg 93%
03:00 +25°C° 0 mm 2 m/s 757 mmHg 95%
04:00 +25°C° 0 mm 1 m/s 757 mmHg 95%
05:00 +25°C° 0 mm 1 m/s 758 mmHg 95%
06:00 +25°C° 0 mm 1 m/s 758 mmHg 96%
07:00 +28°C° 0 mm 2 m/s 758 mmHg 80%
08:00 +30°C° 0 mm 2 m/s 759 mmHg 65%
09:00 +34°C° 0 mm 3 m/s 759 mmHg 49%
10:00 +36°C° 0 mm 3 m/s 758 mmHg 43%
11:00 +38°C° 0 mm 2 m/s 758 mmHg 36%
12:00 +40°C° 0 mm 2 m/s 758 mmHg 29%
13:00 +40°C° 0 mm 2 m/s 757 mmHg 27%
14:00 +41°C° 0 mm 2 m/s 756 mmHg 26%
15:00 +41°C° 0 mm 2 m/s 756 mmHg 25%
16:00 +39°C° 0 mm 2 m/s 756 mmHg 34%
17:00 +36°C° 0 mm 3 m/s 756 mmHg 43%
18:00 +34°C° 0 mm 4 m/s 756 mmHg 52%
19:00 +33°C° 0 mm 3 m/s 757 mmHg 57%
20:00 +30°C° 0 mm 3 m/s 758 mmHg 61%
21:00 +29°C° 0 mm 2 m/s 758 mmHg 66%
22:00 +28°C° 0 mm 2 m/s 758 mmHg 72%
23:00 +27°C° 0 mm 2 m/s 758 mmHg 79%

28 Julho, Quarta-feira

Tempo Temperatura Precipitação Vento Pressão Humidade
00:00 +26°C° 0 mm 2 m/s 758 mmHg 85%
01:00 +25°C° 0 mm 1 m/s 758 mmHg 89%
02:00 +25°C° 0 mm 1 m/s 758 mmHg 93%
03:00 +25°C° 0 mm 1 m/s 758 mmHg 97%
04:00 +25°C° 0 mm 1 m/s 758 mmHg 97%
05:00 +25°C° 0 mm 1 m/s 758 mmHg 97%
06:00 +25°C° 0 mm 1 m/s 759 mmHg 97%
07:00 +28°C° 0 mm 1 m/s 759 mmHg 83%
08:00 +31°C° 0 mm 2 m/s 759 mmHg 70%
09:00 +35°C° 0 mm 2 m/s 759 mmHg 56%
10:00 +35°C° 0.1 mm 2 m/s 759 mmHg 54%
11:00 +36°C° 0.1 mm 2 m/s 758 mmHg 51%
12:00 +36°C° 0.1 mm 1 m/s 758 mmHg 49%
13:00 +35°C° 0.2 mm 2 m/s 758 mmHg 54%
14:00 +34°C° 0.2 mm 2 m/s 757 mmHg 59%
15:00 +33°C° 0.2 mm 3 m/s 757 mmHg 63%
16:00 +31°C° 1.3 mm 2 m/s 757 mmHg 71%
17:00 +29°C° 1.3 mm 2 m/s 757 mmHg 78%
18:00 +28°C° 1.3 mm 2 m/s 758 mmHg 86%
19:00 +27°C° 2.1 mm 2 m/s 758 mmHg 89%
20:00 +26°C° 2.1 mm 2 m/s 758 mmHg 93%
21:00 +26°C° 2.1 mm 2 m/s 759 mmHg 97%
22:00 +25°C° 0 mm 2 m/s 759 mmHg 96%
23:00 +25°C° 0 mm 2 m/s 759 mmHg 96%

29 Julho, Quinta-feira

Tempo Temperatura Precipitação Vento Pressão Humidade
00:00 +25°C° 0 mm 2 m/s 758 mmHg 96%
01:00 +25°C° 0 mm 2 m/s 758 mmHg 97%
02:00 +25°C° 0 mm 1 m/s 758 mmHg 97%
03:00 +25°C° 0 mm 1 m/s 758 mmHg 98%
04:00 +25°C° 0 mm 1 m/s 758 mmHg 98%
05:00 +25°C° 0 mm 1 m/s 758 mmHg 98%
06:00 +25°C° 0 mm 1 m/s 759 mmHg 97%
07:00 +28°C° 0 mm 1 m/s 759 mmHg 85%
08:00 +30°C° 0 mm 2 m/s 759 mmHg 73%
09:00 +34°C° 0 mm 2 m/s 760 mmHg 61%
10:00 +36°C° 0 mm 2 m/s 759 mmHg 52%
11:00 +38°C° 0 mm 2 m/s 759 mmHg 43%
12:00 +39°C° 0 mm 3 m/s 758 mmHg 35%
13:00 +38°C° 0 mm 3 m/s 758 mmHg 41%
14:00 +36°C° 0 mm 3 m/s 758 mmHg 47%
15:00 +34°C° 0 mm 3 m/s 757 mmHg 53%
16:00 +31°C° 0.7 mm 3 m/s 758 mmHg 63%
17:00 +29°C° 0.7 mm 3 m/s 758 mmHg 72%
18:00 +27°C° 0.7 mm 2 m/s 758 mmHg 82%
19:00 +27°C° 0.6 mm 2 m/s 759 mmHg 86%
20:00 +26°C° 0.6 mm 1 m/s 759 mmHg 90%
21:00 +25°C° 0.6 mm 1 m/s 760 mmHg 94%
22:00 +25°C° 0 mm 1 m/s 759 mmHg 94%
23:00 +25°C° 0 mm 1 m/s 759 mmHg 94%

30 Julho, Sexta-feira

Tempo Temperatura Precipitação Vento Pressão Humidade
00:00 +25°C° 0 mm 1 m/s 759 mmHg 95%
01:00 +25°C° 0 mm 1 m/s 759 mmHg 95%
02:00 +25°C° 0 mm 1 m/s 759 mmHg 96%
03:00 +24°C° 0 mm 1 m/s 759 mmHg 97%
04:00 +25°C° 0 mm 1 m/s 759 mmHg 97%
05:00 +25°C° 0 mm 1 m/s 759 mmHg 97%
06:00 +25°C° 0 mm 1 m/s 759 mmHg 97%
07:00 +28°C° 0 mm 2 m/s 759 mmHg 85%
08:00 +30°C° 0 mm 2 m/s 760 mmHg 72%
09:00 +34°C° 0 mm 3 m/s 760 mmHg 60%
10:00 +36°C° 0 mm 3 m/s 759 mmHg 50%
11:00 +38°C° 0 mm 3 m/s 759 mmHg 41%
12:00 +40°C° 0 mm 3 m/s 758 mmHg 31%
13:00 +40°C° 0 mm 3 m/s 758 mmHg 33%
14:00 +40°C° 0 mm 4 m/s 757 mmHg 34%
15:00 +40°C° 0 mm 4 m/s 757 mmHg 36%
16:00 +37°C° 0.1 mm 4 m/s 757 mmHg 43%
17:00 +35°C° 0.1 mm 3 m/s 758 mmHg 51%
18:00 +32°C° 0.1 mm 2 m/s 758 mmHg 58%
19:00 +31°C° 0.1 mm 2 m/s 759 mmHg 64%
20:00 +29°C° 0.1 mm 2 m/s 759 mmHg 71%
21:00 +28°C° 0.1 mm 2 m/s 760 mmHg 77%
22:00 +27°C° 0 mm 2 m/s 760 mmHg 81%
23:00 +26°C° 0 mm 1 m/s 760 mmHg 85%
Mostrar mais

Necessitamos do seu Consentimento

A Meteoprog e os seus Fornecedores de Serviços podem armazenar e aceder a dados pessoais como cookies, identificadores do dispositivo ou outras tecnologias semelhantes existentes no seu dispositivo e processar estes dados para personalizar conteúdos e anúncios, assim como funcionalidades nas redes sociais e análise de tráfego.

  • Armazenar e/ou aceder a informações no seu dispositivo

    Os cookies, identificadores do dispositivo ou outras informações podem ser armazenados ou acedidos no seu dispositivo, para os fins acima indicados.

  • Anúncios e conteúdos personalizados, medição de anúncios e conteúdos, dados sobre o público-alvo e desenvolvimento de produtos

    Os anúncios e os conteúdos podem ser personalizados com base num perfil. Podem ser adicionados dados adicionais para uma maior personalização dos anúncios e dos conteúdos. A eficácia dos anúncios e dos conteúdos pode ser medida. Podem ser obtidas informações sobre o público que visualizou os anúncios e os conteúdos. Estes dados podem ser usados para desenvolver ou melhorar sistemas, softwares ou a experiência do utilizador.

Ao clicar em "Eu concordo”, permitirá o uso de cookies, identificadores do dispositivo e web beacons mencionados ou outras tecnologias semelhantes. As configurações do navegador do seu dispositivo podem ser alteradas.

Para certos fins, podem ser invocados interesses legítimos ao invés de consentimento. Pode ler mais informação sobre este assunto na nossa Política de Privacidade e Cookies.